www.pogodaiklimat.ru

Погода и климат >> Архив погоды >> Россия >> Ростовская область >> Ростов-на-Дону


АРХИВ ПОГОДЫ в Ростове-на-Дону

Время (UTC), дата Ветер
(напр.,м/с)
 
Видим.   Явления Облачность Т
(С)
Тd
(С)
f
(%)
Тe
(С)
Тes
(С)
Комфортность P
(гПа)
Po
(гПа)
Тmin
(С)
Tmax
(С)
R
(мм)
S
(см)
09 15.02 С 7-10
{10}
10 км слабый ливневой снег 9/6 700 м
[Cb calv Ac trans]
-0.1 -3.6 77 -7 -7 по сезону 1013.0 1003.6
12 15.02 С 7-11
{14}
10 км {ливн. осадки, метель} 9/5
[Cb calv Ac trans]
-0.2 -5.4 68 -7 -7 по сезону 1014.9 1005.5
15 15.02 С 6-10
{14}
8000 м слабый снег 9/6 570 м
[Sc Ac trans]
-2.5 -7.3 70 -9 -9 прохладно 1018.7 1009.2 +0.5 0.3
18 15.02 С 3
{14}
8000 м {снег} 8/3
[Sc Ac trans]
-3.7 -8.2 71 -9 -9 по сезону 1021.7 1012.1
21 15.02 СЗ 3 8000 м 8/4 900 м
[Sc Ac trans]
-3.4 -7.2 75 -8 -8 по сезону 1022.7 1013.1
00 16.02 СЗ 4 5000 м слабый ливневой дождь {снег} 10/8 700 м
[Cb calv Ac und]
-2.8 -5.0 85 -9 -9 по сезону 1023.6 1014.0
03 16.02 С 5
{10}
8000 м {ливн. осадки} 9/3
[Sc Ac trans]
-3.3 -7.6 72 -10 -10 по сезону 1024.9 1015.3 -5.0
06 16.02 С 7-10
{10}
10 км {ливн. осадки} 4/0
[Ac trans]
-5.6 -9.6 73 -14 -13 холодно 1026.9 1017.2 -5.8
09 16.02 С 6
{12}
10 км 1/0
[Ac trans]
-4.4 -9.5 68 -12 -10 холодно 1027.7 1018.0
12 16.02 С 6-10
{12}
10 км 1/0
[Ac trans]
-3.8 -10.0 62 -11 -10 холодно 1027.8 1018.2
15 16.02 С 5
{10}
8000 м ясно -5.1 -10.6 65 -12 -12 холодно 1029.1 1019.4 -3.3
18 16.02 С 4
{10}
8000 м ясно -7.4 -11.6 72 -14 -14 холодно 1030.7 1020.9
21 16.02 СЗ 2 8000 м ясно -8.9 -12.6 75 -13 -13 прохладно 1031.4 1021.5
00 17.02 С 2 8000 м 3/0
[Ci fib]
-10.7 -13.4 80 -15 -15 холодно 1031.6 1021.7
03 17.02 СЗ 1 8000 м 3/0
[Ci fib]
-12.2 -14.0 86 -14 -14 холодно 1032.0 1022.0 -13.6
06 17.02 штиль 0 5000 м дым 1/0
[Ci fib]
-9.2 -11.6 83 -10 -7 по сезону 1032.4 1022.5 -13.9
09 17.02 ЮВ 2 6000 м дым ясно -4.2 -10.2 63 -8 -2 по сезону 1031.5 1021.8
12 17.02 ЮВ 3 10 км ясно -3.1 -11.0 54 -8 -5 прохладно 1029.7 1020.1
15 17.02 ЮЗ 4 8000 м 8/0
[Ac trans]
-5.8 -10.7 68 -12 -12 холодно 1029.4 1019.7 -1.4
18 17.02 ЮЗ 4 8000 м 9/0
[Ac trans]
-6.7 -10.6 74 -13 -13 холодно 1029.2 1019.4
21 17.02 ЮЗ 5 8000 м 9/5
[Sc Ac trans]
-6.5 -9.5 79 -14 -14 холодно 1028.4 1018.7
00 18.02 ЮЗ 6 8000 м 10/5
[Sc Ac und]
-6.7 -9.7 79 -15 -15 холодно 1027.4 1017.7
03 18.02 ЮЗ 4 1200 м снег 10/8 240 м
[Sc As op]
-6.6 -8.4 87 -13 -13 прохладно 1026.6 1016.9 -6.9
06 18.02 ЮЗ 3 6000 м дым {снег, ливн. осадки} 5/4
[Sc diur, vesp Ac trans]
-5.0 -8.4 77 -10 -10 по сезону 1026.6 1016.9
09 18.02 З 5 10 км 8/1
[Sc Ac trans]
+1.3 -4.4 66 -4 -3 по сезону 1025.4 1016.0
12 18.02 З 4
{10}
10 км 10/4
[Sc Ac As]
+1.8 -3.4 68 -3 -2 по сезону 1024.6 1015.2
15 18.02 ЮЗ 3 8000 м в посл. час снег 10/5 270 м
[Sc As op]
+0.2 -1.9 86 -4 -4 по сезону 1025.0 1015.5 +2.0 0.2
18 18.02 ЮЗ 3 8000 м 8/3
[Sc Ac trans]
-1.0 -4.1 79 -6 -6 по сезону 1025.2 1015.7
21 18.02 ЮЗ 4 6000 м слабый ливневой снег 10/8 600 м
[Cb calv Ac und]
-0.9 -3.4 83 -7 -7 по сезону 1025.3 1015.8
00 19.02 ЮЗ 3 8000 м {ливн. осадки, снег} 9/4
[Sc Ac trans]
-0.4 -3.3 81 -5 -5 по сезону 1025.3 1015.8
03 19.02 З 2 4300 м дымка 8/4
[Sc Ac trans]
-1.9 -3.3 90 -6 -6 по сезону 1026.6 1017.0 -1.9 0.0
06 19.02 ЮЗ 2 2100 м туман 8/4 1110 м
[Sc Ac trans]
-0.7 -1.5 94 -5 -4 по сезону 1027.9 1018.4 -2.7
09 19.02 ЮЗ 3 10 км 9/5 1140 м
[Sc Ac trans]
+2.8 -1.5 73 -1 0 по сезону 1028.2 1018.8
12 19.02 З 4 10 км 5/4
[Sc Ac trans]
+5.4 -0.5 66 +2 +3 тепло 1027.6 1018.3
15 19.02 З 2 8000 м 4/0
[Ac trans]
+3.2 -0.9 74 0 0 тепло 1027.6 1018.2 +5.5
18 19.02 ЮЗ 3 8000 м дымка 4/0
[Ac trans]
+0.2 -2.3 83 -4 -4 по сезону 1027.7 1018.2
21 19.02 З 2 4900 м дымка 4/0
[Ac trans]
-0.9 -2.7 88 -5 -5 по сезону 1027.0 1017.5
00 20.02 З 2 3900 м дымка 5/3
[Sc Ac trans]
-0.8 -2.1 91 -5 -5 по сезону 1026.2 1016.7
03 20.02 З 1 5000 м дымка 9/6 1000 м
[Sc Ac trans]
-0.1 -1.9 88 -2 -2 тепло 1025.7 1016.2 -1.8
06 20.02 З 1 4600 м дымка 9/5 900 м
[Sc Ac trans]
+1.0 -0.9 87 -1 -0 тепло 1025.3 1015.9
09 20.02 ЮЗ 3 10 км 5/3
[Sc Ac trans]
+5.6 -0.8 63 +3 +6 тепло 1024.4 1015.1
12 20.02 ЮЗ 4 10 км 3/0
[Ac trans Ci fib]
+6.7 +0.5 65 +3 +5 тепло 1022.1 1012.9
15 20.02 ЮЗ 3 6000 м дымка 3/0
[Ci fib]
+3.5 +0.2 79 -0 -0 тепло 1020.6 1011.3 +6.9
18 20.02 Ю 1 3000 м дымка 4/0
[Ci fib]
+2.2 -0.1 85 +1 +1 тепло 1019.8 1010.5
21 20.02 штиль 0 3600 м дымка ясно +1.4 -0.2 89 0 0 тепло 1018.3 1008.9
00 21.02 В 2 3000 м дымка ясно -0.2 -1.5 91 -4 -4 по сезону 1015.9 1006.5
03 21.02 В 3 2700 м дымка ясно -2.6 -3.9 91 -8 -8 по сезону 1014.1 1004.6 -2.5
06 21.02 ЮЗ 3 10 км 5/0
[Ac trans Ci fib]
+1.2 -2.6 76 -3 -2 по сезону 1013.4 1004.1 -2.7
09 21.02 ЮЗ 5 5000 м в посл. час дождь 9/9 150 м
[Sc]
+3.9 +2.6 91 -1 -1 по сезону 1012.7 1003.5
12 21.02 ЮЗ 8-10
{14}
10 км {дождь} 9/9 360 м
[Sc]
+5.0 +2.3 83 -1 -1 по сезону 1011.2 1002.0
15 21.02 ЮЗ 5
{11}
8000 м 9/9 480 м
[Sc]
+4.7 +2.3 84 -0 -0 тепло 1010.9 1001.7 +5.5
18 21.02 ЮЗ 6
{12}
8000 м слабый дождь 10/8 330 м
[Sc Ac und]
+3.8 +1.6 86 -2 -2 по сезону 1009.9 1000.7
21 21.02 ЮЗ 7
{12}
8000 м слабый дождь 9/9 210 м
[Sc]
+3.2 +1.6 89 -3 -3 по сезону 1008.7 999.5
00 22.02 ЮЗ 6
{12}
5000 м в посл. час ливневой дождь 10/6 150 м
[Cb calv Ac und]
+2.5 +1.5 93 -4 -4 по сезону 1007.7 998.5
03 22.02 ЮЗ 7-10
{12}
6000 м дымка {ливн. осадки} 10/8 270 м
[Sc Ac und]
+3.3 +2.0 91 -3 -3 по сезону 1006.6 997.4 +2.2 0.4
06 22.02 ЮЗ 7-11
{12}
5000 м слабый ливневой дождь 10/8 270 м
[Cb calv Ac und]
+3.1 +1.7 91 -3 -3 по сезону 1006.7 997.5

 

Местоположение метеостанции Ростов-на-Дону (Ростовская область, Россия): широта 47.27 долгота 39.82 высота над уровнем моря 75 м.

В архиве по умолчанию представлена погода в Ростове-на-Дону за последнюю неделю. Архивные данные за месяц целиком и за предыдущие месяцы, начиная с января 2011 года, Вы можете получить, выбрав интересующий диапазон дат из раскрывающегося списка и нажав кнопку "Ввод!".

Внимание! Время в таблицах - всемирное. Для получения местного времени необходимо прибавить поправку, которая в Ростове-на-Дону равна 3 ч.

Смотрите также архив погоды в соседних городах и на ближайших метеорологических станциях:

Погода в Шахтах (Ростовская область, Россия) (59 км)
Погода в Зерноград (Ростовская область, Россия) (60 км)
Погода в Таганроге (Ростовская область, Россия) (70 км)
Погода в Матвеевом Кургане (Ростовская область, Россия) (78 км)
Погода в Семикаракорске (Ростовская область, Россия) (81 км)
Погода в Маргаритово (Ростовская область, Россия) (81 км)
Погода в Кущевской (Краснодарский край, Россия) (84 км)
Погода в Константиновске (Ростовская область, Россия) (102 км)
Погода в Староминская (Краснодарский край, Россия) (102 км)
Погода в Каменск-Шахтинском (Ростовская область, Россия) (120 км)

Пояснения к столбцам:

Ветер - указаны скорость ветра в м/с - средняя за 10 мин, порывы в срок и между сроками (в фигурных скобках) и направление, откуда дует ветер: С - северный, СВ - северо-восточный, В - восточный, ЮВ - юго-восточный, Ю - южный, ЮЗ - юго-западный, З - западный, СЗ - северо-западный.
Видимость - горизонтальная дальность видимости в метрах или километрах. При видимости от 1 до 10 км при отсутствии осадков обычно наблюдается дымка, при ухудшении видимости до 1 км и менее - туман. В сухую погоду видимость может ухудшаться дымом, пылью или мглою.
Явления - указаны атмосферные явления, наблюдавшиеся в срок или в последний час перед сроком; фигурными скобками обозначены явления, наблюдавшиеся между сроками (за 1-3 часа до срока); квадратными скобками обозначены град или гололедные отложения с указанием их диаметра в мм.
Облачность - указаны через наклонную черту общая и нижняя облачность в баллах и высота нижней границы облаков в метрах; квадратными скобками обозначены формы облаков: Ci - перистые, Cs - перисто-слоистые, Cc - перисто-кучевые, Ac - высококучевые, As - высокослоистые, Sc - слоисто-кучевые, Ns - слоисто-дождевые, Cu - кучевые, Cb - кучево-дождевые. Подробнее классификацию облаков см. в Атласе облаков (PDF).
T - Температура воздуха - температура, измеренная на высоте 2 м над землей.
Td - Температура точки росы - температура, при понижении до которой содержащийся в воздухе водяной пар достигнет насыщения.
f - Относительная влажность воздуха - влажноcть воздуха, измеренная на высоте 2 м над землей.
Te - Эффективная температура - температура, которую ощущает одетый по сезону человек в тени. Характеристика душности погоды. При расчете учитывается влияние влажности воздуха и скорости ветра на теплоощущения человека.
Tes - Эффективная температура на солнце - температура, которую ощущает человек, с поправкой на солнечный нагрев. Характеристика знойности погоды. Зависит от высоты солнца над горизонтом, облачности и скорости ветра. Ночью, в пасмурную погоду, а также при ветре 12 м/с и более поправка равна нулю.
P - Атмосферное давление - приведенное к уровню моря атмосферное давление.
Po - Атмосферное давление - измеренное на уровне метеостанции атмосферное давление.
Tmin - Минимальная температура - минимум температуры воздуха на высоте 2 м над землей.
Tmax - Максимальная температура - максимум температуры воздуха на высоте 2 м над землей.
R - Количество осадков - Количество выпавших осадков, мм. При наведении курсора мыши на число - период времени, за который выпало указанное количество осадков.
S - Снежный покров - Высота снежного покрова, см. При наведении курсора мыши на число - состояние снежного покрова и степень покрытия местности в баллах.